This demonstration page uses our WeatherBlox Daily Observations layout. Learn more.

Left ArrowRight Arrow

Hourly Observations for August 29, 2020

Temp ( °F °C ) Dew Point ( °F °C ) Humidity (%) Winds ( mph kmh ) Pressure ( in mb ) Visibility ( mi km ) Precip ( " mm )
12:52 am 00:52 Clear 71 21.7 68 20 90 90 S 3 6 29.82 1010 10 16 0.00 0.00
1:52 am 01:52 Clear 72 22.2 69 20.6 91 91 SW 3 6 29.81 1010 10 16 0.00 0.00
2:52 am 02:52 Clear 72 22.2 69 20.6 91 91 S 5 7 29.80 1009 10 16 0.00 0.00
3:52 am 03:52 Clear 72 22.2 68 20 87 87 S 6 9 29.80 1009 10 16 0.00 0.00
4:52 am 04:52 Clear 72 22.2 68 20 87 87 SSW 3 6 29.81 1009 10 16 0.00 0.00
5:52 am 05:52 Clear 71 21.7 67 19.4 87 87 S 3 6 29.83 1010 10 16 0.00 0.00
6:52 am 06:52 Mostly Sunny 71 21.7 67 19.4 87 87 Calm 29.84 1010 10 16 0.00 0.00
7:52 am 07:52 Mostly Sunny 75 23.9 69 20.6 82 82 S 3 6 29.85 1011 10 16 0.00 0.00
8:52 am 08:52 Mostly Cloudy 78 25.6 70 21.1 76 76 NE 3 6 29.87 1012 10 16 0.00 0.00
9:52 am 09:52 Sunny 79 26.1 70 21.1 74 74 NNE 7 11 29.87 1012 10 16 0.00 0.00
10:31 am 10:31 Windy with Storms Likely 74 23.3 66 18.9 76 76 W 25 41 29.92 1013 9 14 0.00 0.00
10:38 am 10:38 Cloudy with Strong Thunderstorms 70 21.1 67 19.4 90 90 WNW 26 43 29.95 1014 2 2 0.00 0.00
10:43 am 10:43 Cloudy with Strong Thunderstorms 70 21.1 68 20 93 93 WNW 26 43 29.96 1015 1 2 0.15 3.81
10:50 am 10:50 Cloudy with Strong Thunderstorms 70 21 68 20 94 94 NW 25 41 29.96 1015 1 1 0.32 8.13
10:52 am 10:52 Cloudy with Strong Thunderstorms 69 20.6 68 20 96 96 NW 36 57 29.97 1015 1 1 0.38 9.65
10:57 am 10:57 Cloudy with Strong Thunderstorms 69 20.6 68 20 96 96 NW 38 61 29.97 1015 1 2 0.08 2.03
11:04 am 11:04 Cloudy with Thunderstorms 69 20.6 68 20 96 96 NNW 38 61 29.96 1015 2 3 0.12 3.05
11:13 am 11:13 Windy with Storms Likely 69 20.6 67 19.4 93 93 N 37 59 29.94 1014 6 10 0.13 3.30
11:23 am 11:23 Mostly Cloudy with Nearby Thunderstorms 68 20 66 18.9 93 93 N 30 48 29.93 1014 10 16 0.13 3.30
11:32 am 11:32 Windy with Storms Likely 68 20 65 18.3 90 90 N 31 50 29.92 1013 8 13 0.13 3.30
11:50 am 11:50 Mostly Cloudy with Nearby Thunderstorms 70 21 66 19 88 88 NNE 28 44 29.90 1013 7 11 0.16 4.06
11:52 am 11:52 Mostly Cloudy with Nearby Thunderstorms 69 20.6 67 19.4 93 93 NE 28 44 29.91 1013 8 13 0.16 4.06
12:25 pm 12:25 Mostly Cloudy with Light Rain 69 20.6 66 18.9 90 90 E 16 26 29.85 1011 10 16 0.03 0.76
12:52 pm 12:52 Mostly Sunny 70 21.1 67 19.4 90 90 ENE 15 24 29.86 1011 10 16 0.03 0.76
1:52 pm 13:52 Mostly Cloudy 74 23.3 66 18.9 76 76 NE 9 15 29.86 1011 10 16 0.00 0.00
2:52 pm 14:52 Partly Cloudy 75 23.9 66 18.9 74 74 E 8 13 29.86 1011 10 16 0.00 0.00
3:52 pm 15:52 Sunny 76 24.4 65 18.3 69 69 E 5 7 29.85 1011 10 16 0.00 0.00
4:52 pm 16:52 Mostly Cloudy 78 25.6 66 18.9 67 67 SSE 3 6 29.83 1010 10 16 0.00 0.00
5:52 pm 17:52 Mostly Cloudy 76 24.4 67 19.4 74 74 N 8 13 29.85 1011 10 16 0.00 0.00
6:52 pm 18:52 Mostly Cloudy 73 22.8 67 19.4 81 81 N 9 15 29.86 1011 10 16 0.00 0.00
7:52 pm 19:52 Cloudy with Light Rain 72 22.2 68 20 87 87 N 8 13 29.85 1011 10 16 0.00 0.00
8:52 pm 20:52 Cloudy 71 21.7 69 20.6 94 94 ENE 6 9 29.86 1011 10 16 0.00 0.00
9:52 pm 21:52 Cloudy 71 21.7 68 20 90 90 NE 8 13 29.86 1011 10 16 0.00 0.00
10:52 pm 22:52 Mostly Cloudy 70 21.1 68 20 93 93 NE 8 13 29.85 1011 10 16 0.00 0.00
11:52 pm 23:52 Cloudy 69 20.6 67 19.4 93 93 NE 9 15 29.85 1011 10 16 0.00 0.00

Powered by AerisWeather